Time,TemperatureF,DewpointF,PressureIn,WindDirection,WindDirectionDegrees,WindSpeedMPH,WindSpeedGustMPH,Humidity,HourlyPrecipIn,Conditions,Clouds,dailyrainin,SoftwareType,DateUTC
2013-02-22 00:00:00,24.9,15.8,29.90,NE,45,0.0,0.0,68,0.00,,,0.00,WUHU216HW,2013-02-22 05:00:00,
2013-02-22 00:03:00,24.9,15.8,29.90,NE,45,0.0,0.0,68,0.00,,,0.00,WUHU216HW,2013-02-22 05:03:00,
2013-02-22 00:08:00,24.9,15.8,29.89,NE,45,0.0,0.0,68,0.00,,,0.00,WUHU216HW,2013-02-22 05:08:00,
2013-02-22 00:13:00,24.9,15.8,29.90,NE,45,0.0,0.0,68,0.00,,,0.00,WUHU216HW,2013-02-22 05:13:00,
2013-02-22 00:18:00,24.9,15.8,29.90,NE,45,0.0,0.0,68,0.00,,,0.00,WUHU216HW,2013-02-22 05:18:00,
2013-02-22 00:23:00,24.9,15.8,29.90,NE,45,0.0,0.0,68,0.00,,,0.00,WUHU216HW,2013-02-22 05:23:00,
2013-02-22 00:28:00,24.9,15.8,29.91,NE,45,0.0,0.0,68,0.00,,,0.00,WUHU216HW,2013-02-22 05:28:00,
2013-02-22 00:33:00,25.1,15.9,29.92,NE,45,0.0,0.0,68,0.00,,,0.00,WUHU216HW,2013-02-22 05:33:00,
2013-02-22 00:38:00,25.1,15.9,29.92,NE,45,0.0,0.0,68,0.00,,,0.00,WUHU216HW,2013-02-22 05:38:00,
2013-02-22 00:43:00,25.1,15.9,29.93,NE,45,0.0,0.0,68,0.00,,,0.00,WUHU216HW,2013-02-22 05:43:00,
2013-02-22 00:49:00,25.3,16.1,29.93,SSE,158,0.0,0.0,68,0.00,,,0.00,WUHU216HW,2013-02-22 05:49:00,
2013-02-22 00:54:00,25.3,16.1,29.93,SSE,158,0.0,0.0,68,0.00,,,0.00,WUHU216HW,2013-02-22 05:54:00,
2013-02-22 00:59:00,25.3,16.5,29.93,SSE,158,0.0,0.0,69,0.00,,,0.00,WUHU216HW,2013-02-22 05:59:00,
2013-02-22 01:04:00,25.3,16.5,29.93,SSE,158,0.0,0.0,69,0.00,,,0.00,WUHU216HW,2013-02-22 06:04:00,
2013-02-22 01:09:00,25.3,16.5,29.92,SSE,158,0.0,0.0,69,0.00,,,0.00,WUHU216HW,2013-02-22 06:09:00,
2013-02-22 01:14:00,25.3,16.5,29.90,SSE,158,0.0,0.0,69,0.00,,,0.00,WUHU216HW,2013-02-22 06:14:00,
2013-02-22 01:19:00,25.3,16.5,29.90,SSE,158,0.0,0.0,69,0.00,,,0.00,WUHU216HW,2013-02-22 06:19:00,
2013-02-22 01:24:00,25.3,16.5,29.90,SSE,158,0.0,0.0,69,0.00,,,0.00,WUHU216HW,2013-02-22 06:24:00,
2013-02-22 01:29:00,25.5,16.7,29.91,SSE,158,0.0,0.0,69,0.00,,,0.00,WUHU216HW,2013-02-22 06:29:00,
2013-02-22 01:34:00,25.5,16.7,29.90,SSE,158,0.0,0.0,69,0.00,,,0.00,WUHU216HW,2013-02-22 06:34:00,
2013-02-22 01:39:00,25.5,16.7,29.90,SSE,158,0.0,0.0,69,0.00,,,0.00,WUHU216HW,2013-02-22 06:39:00,
2013-02-22 01:44:00,25.5,16.7,29.91,SSE,158,0.0,0.0,69,0.00,,,0.00,WUHU216HW,2013-02-22 06:44:00,
2013-02-22 01:49:00,25.5,16.7,29.91,SSE,158,0.0,0.0,69,0.00,,,0.00,WUHU216HW,2013-02-22 06:49:00,
2013-02-22 01:54:00,25.5,17.0,29.91,SSE,158,0.0,0.0,70,0.00,,,0.00,WUHU216HW,2013-02-22 06:54:00,
2013-02-22 01:59:00,25.5,17.0,29.92,SSE,158,0.0,0.0,70,0.00,,,0.00,WUHU216HW,2013-02-22 06:59:00,
2013-02-22 02:04:00,25.5,17.0,29.92,SSE,158,0.0,0.0,70,0.00,,,0.00,WUHU216HW,2013-02-22 07:04:00,
2013-02-22 02:09:00,25.5,16.7,29.92,SSE,158,0.0,0.0,69,0.00,,,0.00,WUHU216HW,2013-02-22 07:09:00,
2013-02-22 02:14:00,25.5,16.7,29.93,SSE,158,0.0,0.0,69,0.00,,,0.00,WUHU216HW,2013-02-22 07:14:00,
2013-02-22 02:19:00,25.5,16.7,29.93,SSE,158,0.0,0.0,69,0.00,,,0.00,WUHU216HW,2013-02-22 07:19:00,
2013-02-22 02:24:00,25.5,16.7,29.93,SSE,158,0.0,0.0,69,0.00,,,0.00,WUHU216HW,2013-02-22 07:24:00,
2013-02-22 02:29:00,25.5,16.7,29.94,SSE,158,0.0,0.0,69,0.00,,,0.00,WUHU216HW,2013-02-22 07:29:00,
2013-02-22 02:34:00,25.5,16.7,29.94,SSE,158,0.0,0.0,69,0.00,,,0.00,WUHU216HW,2013-02-22 07:34:00,
2013-02-22 02:39:00,25.5,16.7,29.94,SSE,158,0.0,0.0,69,0.00,,,0.00,WUHU216HW,2013-02-22 07:39:00,
2013-02-22 02:44:00,25.7,16.5,29.95,SSE,158,0.0,0.0,68,0.00,,,0.00,WUHU216HW,2013-02-22 07:44:00,
2013-02-22 02:49:00,25.7,16.5,29.94,SE,135,0.0,0.0,68,0.00,,,0.00,WUHU216HW,2013-02-22 07:49:00,
2013-02-22 02:54:00,25.7,16.5,29.94,SE,135,0.0,0.0,68,0.00,,,0.00,WUHU216HW,2013-02-22 07:54:00,
2013-02-22 02:59:00,25.7,16.5,29.94,SE,135,0.0,0.0,68,0.00,,,0.00,WUHU216HW,2013-02-22 07:59:00,
2013-02-22 03:04:00,25.7,16.5,29.94,SE,135,0.0,0.0,68,0.00,,,0.00,WUHU216HW,2013-02-22 08:04:00,
2013-02-22 03:09:00,25.8,16.7,29.95,SE,135,0.0,0.0,68,0.00,,,0.00,WUHU216HW,2013-02-22 08:09:00,
2013-02-22 03:14:00,25.7,16.5,29.94,SE,135,0.0,0.0,68,0.00,,,0.00,WUHU216HW,2013-02-22 08:14:00,
2013-02-22 03:19:00,25.8,16.7,29.95,SSE,158,0.0,0.0,68,0.00,,,0.00,WUHU216HW,2013-02-22 08:19:00,
2013-02-22 03:24:00,25.8,16.7,29.95,SSE,158,0.0,0.0,68,0.00,,,0.00,WUHU216HW,2013-02-22 08:24:00,
2013-02-22 03:29:00,26.0,16.7,29.95,SSE,158,0.0,0.0,68,0.00,,,0.00,WUHU216HW,2013-02-22 08:29:00,
2013-02-22 03:34:00,26.0,16.8,29.96,SSE,158,0.0,0.0,68,0.00,,,0.00,WUHU216HW,2013-02-22 08:34:00,
2013-02-22 03:39:00,26.0,16.8,29.97,SSE,158,0.0,0.0,68,0.00,,,0.00,WUHU216HW,2013-02-22 08:39:00,
2013-02-22 03:43:00,26.0,16.8,29.97,SSE,158,0.0,0.0,68,0.00,,,0.00,WUHU216HW,2013-02-22 08:43:00,
2013-02-22 03:49:00,26.2,17.0,29.97,SSE,158,0.0,0.0,68,0.00,,,0.00,WUHU216HW,2013-02-22 08:49:00,
2013-02-22 03:54:00,26.2,17.0,29.97,SSE,158,0.0,0.0,68,0.00,,,0.00,WUHU216HW,2013-02-22 08:54:00,
2013-02-22 03:59:00,26.2,17.0,29.97,ESE,113,0.0,0.0,68,0.00,,,0.00,WUHU216HW,2013-02-22 08:59:00,
2013-02-22 04:04:00,26.2,17.0,29.96,ESE,113,0.0,0.0,68,0.00,,,0.00,WUHU216HW,2013-02-22 09:04:00,
2013-02-22 04:09:00,26.2,17.0,29.95,ESE,113,0.0,0.0,68,0.00,,,0.00,WUHU216HW,2013-02-22 09:09:00,
2013-02-22 04:14:00,26.4,17.2,29.95,ESE,113,0.0,0.0,68,0.00,,,0.00,WUHU216HW,2013-02-22 09:14:00,
2013-02-22 04:19:00,26.4,16.8,29.95,ESE,113,0.0,0.0,67,0.00,,,0.00,WUHU216HW,2013-02-22 09:19:00,
2013-02-22 04:24:00,26.4,16.8,29.95,ESE,113,0.0,0.0,67,0.00,,,0.00,WUHU216HW,2013-02-22 09:24:00,
2013-02-22 04:29:00,26.4,16.8,29.97,ESE,113,0.0,0.0,67,0.00,,,0.00,WUHU216HW,2013-02-22 09:29:00,
2013-02-22 04:34:00,26.4,16.8,29.96,ESE,113,0.0,0.0,67,0.00,,,0.00,WUHU216HW,2013-02-22 09:34:00,
2013-02-22 04:39:00,26.4,16.8,29.95,ENE,68,0.0,0.0,67,0.00,,,0.00,WUHU216HW,2013-02-22 09:39:00,
2013-02-22 04:44:00,26.4,16.8,29.94,ENE,68,0.0,0.0,67,0.00,,,0.00,WUHU216HW,2013-02-22 09:44:00,
2013-02-22 04:49:00,26.4,16.8,29.93,ENE,68,0.0,0.0,67,0.00,,,0.00,WUHU216HW,2013-02-22 09:49:00,
2013-02-22 04:54:00,26.6,17.0,29.94,ENE,68,0.0,0.0,67,0.00,,,0.00,WUHU216HW,2013-02-22 09:54:00,
2013-02-22 04:59:00,26.6,17.0,29.94,ENE,68,0.0,0.0,67,0.00,,,0.00,WUHU216HW,2013-02-22 09:59:00,
2013-02-22 05:04:00,26.6,17.0,29.93,ENE,68,0.0,0.0,67,0.00,,,0.00,WUHU216HW,2013-02-22 10:04:00,
2013-02-22 05:09:00,26.7,17.2,29.93,ENE,68,0.0,0.0,67,0.00,,,0.00,WUHU216HW,2013-02-22 10:09:00,
2013-02-22 05:14:00,26.7,17.6,29.93,ENE,68,0.0,0.0,68,0.00,,,0.00,WUHU216HW,2013-02-22 10:14:00,
2013-02-22 05:19:00,26.7,17.2,29.94,ENE,68,0.0,0.0,67,0.00,,,0.00,WUHU216HW,2013-02-22 10:19:00,
2013-02-22 05:24:00,26.7,17.2,29.94,ENE,68,0.0,0.0,67,0.00,,,0.00,WUHU216HW,2013-02-22 10:24:00,
2013-02-22 05:29:00,26.9,17.4,29.94,ENE,68,0.0,0.0,67,0.00,,,0.00,WUHU216HW,2013-02-22 10:29:00,
2013-02-22 05:34:00,27.1,17.6,29.93,ENE,68,0.0,0.0,67,0.00,,,0.00,WUHU216HW,2013-02-22 10:34:00,
2013-02-22 05:39:00,27.1,17.6,29.93,ENE,68,0.0,0.0,67,0.00,,,0.00,WUHU216HW,2013-02-22 10:39:00,
2013-02-22 05:44:00,27.1,17.6,29.93,ENE,68,0.0,0.0,67,0.00,,,0.00,WUHU216HW,2013-02-22 10:44:00,
2013-02-22 05:49:00,27.3,17.7,29.94,ENE,68,0.0,0.0,67,0.00,,,0.00,WUHU216HW,2013-02-22 10:49:00,
2013-02-22 05:54:00,27.5,17.9,29.94,ENE,68,0.0,0.0,67,0.00,,,0.00,WUHU216HW,2013-02-22 10:54:00,
2013-02-22 05:59:00,27.5,17.9,29.94,ENE,68,0.0,0.0,67,0.00,,,0.00,WUHU216HW,2013-02-22 10:59:00,
2013-02-22 06:04:00,27.5,17.9,29.94,ENE,68,0.0,0.0,67,0.00,,,0.00,WUHU216HW,2013-02-22 11:04:00,
2013-02-22 06:09:00,27.5,17.9,29.94,ENE,68,0.0,0.0,67,0.00,,,0.00,WUHU216HW,2013-02-22 11:09:00,
2013-02-22 06:14:00,27.5,17.9,29.93,ENE,68,0.0,0.0,67,0.00,,,0.00,WUHU216HW,2013-02-22 11:14:00,
2013-02-22 06:19:00,27.6,18.1,29.93,ENE,68,0.0,0.0,67,0.00,,,0.00,WUHU216HW,2013-02-22 11:19:00,
2013-02-22 06:25:00,27.6,18.1,29.93,ENE,68,0.0,0.0,67,0.00,,,0.00,WUHU216HW,2013-02-22 11:25:00,
2013-02-22 06:30:00,27.6,18.1,29.93,ENE,68,0.0,0.0,67,0.00,,,0.00,WUHU216HW,2013-02-22 11:30:00,
2013-02-22 06:35:00,27.6,18.1,29.94,ENE,68,0.0,0.0,67,0.00,,,0.00,WUHU216HW,2013-02-22 11:35:00,
2013-02-22 06:40:00,27.6,17.7,29.94,ENE,68,0.0,0.0,66,0.00,,,0.00,WUHU216HW,2013-02-22 11:40:00,
2013-02-22 06:45:00,28.0,18.1,29.94,ENE,68,0.0,0.0,66,0.00,,,0.00,WUHU216HW,2013-02-22 11:45:00,
2013-02-22 06:50:00,28.0,18.1,29.95,WNW,293,0.0,0.0,66,0.00,,,0.00,WUHU216HW,2013-02-22 11:50:00,
2013-02-22 06:55:00,28.0,18.5,29.95,WNW,293,0.0,0.0,67,0.00,,,0.00,WUHU216HW,2013-02-22 11:55:00,
2013-02-22 07:00:00,28.0,18.5,29.95,NW,315,0.0,0.0,67,0.00,,,0.00,WUHU216HW,2013-02-22 12:00:00,
2013-02-22 07:05:00,28.0,18.8,29.95,NW,315,0.0,0.0,68,0.00,,,0.00,WUHU216HW,2013-02-22 12:05:00,
2013-02-22 07:10:00,27.8,18.3,29.96,NNW,338,0.0,0.0,67,0.00,,,0.00,WUHU216HW,2013-02-22 12:10:00,
2013-02-22 07:15:00,27.6,18.1,29.95,NNW,338,0.0,0.0,67,0.00,,,0.00,WUHU216HW,2013-02-22 12:15:00,
2013-02-22 07:20:00,28.0,18.5,29.95,NNW,338,0.0,0.0,67,0.00,,,0.00,WUHU216HW,2013-02-22 12:20:00,
2013-02-22 07:25:00,28.0,18.5,29.95,NNW,338,0.0,0.0,67,0.00,,,0.00,WUHU216HW,2013-02-22 12:25:00,
2013-02-22 07:30:00,28.0,18.5,29.96,NNW,338,0.0,0.0,67,0.00,,,0.00,WUHU216HW,2013-02-22 12:30:00,
2013-02-22 07:35:00,28.2,18.6,29.95,NNW,338,0.0,0.0,67,0.00,,,0.00,WUHU216HW,2013-02-22 12:35:00,
2013-02-22 07:40:00,28.2,18.6,29.95,NNW,338,0.0,0.0,67,0.00,,,0.00,WUHU216HW,2013-02-22 12:40:00,
2013-02-22 07:45:00,28.2,18.6,29.95,NNW,338,0.0,0.0,67,0.00,,,0.00,WUHU216HW,2013-02-22 12:45:00,
2013-02-22 07:50:00,28.2,18.6,29.95,NNW,338,0.0,0.0,67,0.00,,,0.00,WUHU216HW,2013-02-22 12:50:00,
2013-02-22 07:55:00,28.2,18.8,29.94,NNW,338,0.0,0.0,67,0.00,,,0.00,WUHU216HW,2013-02-22 12:55:00,
2013-02-22 08:00:00,28.5,19.0,29.95,NNW,338,0.0,0.0,67,0.00,,,0.00,WUHU216HW,2013-02-22 13:00:00,
2013-02-22 08:05:00,28.7,19.5,29.94,NNW,338,0.0,0.0,68,0.00,,,0.00,WUHU216HW,2013-02-22 13:05:00,
2013-02-22 08:10:00,28.9,19.3,29.93,NNW,338,0.0,0.0,67,0.00,,,0.00,WUHU216HW,2013-02-22 13:10:00,
2013-02-22 08:15:00,29.1,19.5,29.93,NNW,338,0.0,0.0,67,0.00,,,0.00,WUHU216HW,2013-02-22 13:15:00,
2013-02-22 08:20:00,29.3,19.6,29.93,SE,135,0.0,0.0,67,0.00,,,0.00,WUHU216HW,2013-02-22 13:20:00,
2013-02-22 08:25:00,29.6,19.6,29.93,SE,135,0.0,0.0,66,0.00,,,0.00,WUHU216HW,2013-02-22 13:25:00,
2013-02-22 08:30:00,30.0,19.9,29.92,SE,135,0.0,0.0,66,0.00,,,0.00,WUHU216HW,2013-02-22 13:30:00,
2013-02-22 08:35:00,30.0,19.9,29.91,NE,45,0.0,7.8,66,0.00,,,0.00,WUHU216HW,2013-02-22 13:35:00,
2013-02-22 08:40:00,30.3,19.5,29.90,NE,45,2.0,7.8,64,0.00,,,0.00,WUHU216HW,2013-02-22 13:40:00,
2013-02-22 08:45:00,30.5,19.4,29.90,NE,45,0.0,7.8,63,0.00,,,0.00,WUHU216HW,2013-02-22 13:45:00,
2013-02-22 08:50:00,30.7,19.5,29.91,West,270,0.0,7.8,63,0.00,,,0.00,WUHU216HW,2013-02-22 13:50:00,
2013-02-22 08:56:00,30.9,20.1,29.91,WNW,293,0.0,4.0,64,0.00,,,0.00,WUHU216HW,2013-02-22 13:56:00,
2013-02-22 09:01:00,31.1,19.9,29.91,ESE,113,0.0,4.0,63,0.00,,,0.00,WUHU216HW,2013-02-22 14:01:00,
2013-02-22 09:05:00,31.4,20.3,29.90,ESE,113,0.0,2.6,63,0.00,,,0.00,WUHU216HW,2013-02-22 14:05:00,
2013-02-22 09:10:00,31.6,20.1,29.90,WSW,248,0.0,2.6,62,0.00,,,0.00,WUHU216HW,2013-02-22 14:10:00,
2013-02-22 09:16:00,31.8,20.3,29.89,NNW,338,0.0,0.0,62,0.00,,,0.00,WUHU216HW,2013-02-22 14:16:00,
2013-02-22 09:21:00,32.1,20.6,29.89,West,270,0.0,0.0,62,0.00,,,0.00,WUHU216HW,2013-02-22 14:21:00,
2013-02-22 09:26:00,32.3,20.4,29.89,North,0,0.0,0.0,61,0.00,,,0.00,WUHU216HW,2013-02-22 14:26:00,
2013-02-22 09:31:00,32.5,20.2,29.89,ENE,68,0.0,4.4,60,0.00,,,0.00,WUHU216HW,2013-02-22 14:31:00,
2013-02-22 09:36:00,32.7,20.4,29.89,SE,135,7.3,7.3,60,0.00,,,0.00,WUHU216HW,2013-02-22 14:36:00,
2013-02-22 09:41:00,32.9,20.1,29.89,ESE,113,9.1,12.3,59,0.00,,,0.00,WUHU216HW,2013-02-22 14:41:00,
2013-02-22 09:46:00,32.7,19.5,29.89,SE,135,2.9,12.3,58,0.00,,,0.00,WUHU216HW,2013-02-22 14:46:00,
2013-02-22 09:51:00,32.7,19.5,29.88,East,90,2.9,15.2,58,0.00,,,0.00,WUHU216HW,2013-02-22 14:51:00,
2013-02-22 09:56:00,32.5,19.3,29.89,NE,45,8.5,15.2,58,0.00,,,0.00,WUHU216HW,2013-02-22 14:56:00,
2013-02-22 10:01:00,32.5,19.8,29.89,SE,135,6.9,8.5,59,0.00,,,0.00,WUHU216HW,2013-02-22 15:01:00,
2013-02-22 10:06:00,32.7,19.9,29.88,ENE,68,0.0,6.9,59,0.00,,,0.00,WUHU216HW,2013-02-22 15:06:00,
2013-02-22 10:11:00,32.7,19.5,29.89,ENE,68,1.7,10.2,58,0.00,,,0.00,WUHU216HW,2013-02-22 15:11:00,
2013-02-22 10:16:00,32.7,19.5,29.88,SSE,158,0.0,10.2,58,0.00,,,0.00,WUHU216HW,2013-02-22 15:16:00,
2013-02-22 10:21:00,32.7,19.5,29.88,East,90,0.0,6.2,58,0.00,,,0.00,WUHU216HW,2013-02-22 15:21:00,
2013-02-22 10:26:00,32.7,19.5,29.89,SE,135,10.0,10.0,58,0.00,,,0.00,WUHU216HW,2013-02-22 15:26:00,
2013-02-22 10:31:00,32.7,19.5,29.89,ESE,113,0.0,10.0,58,0.00,,,0.00,WUHU216HW,2013-02-22 15:31:00,
2013-02-22 10:36:00,32.5,19.8,29.89,SSW,203,0.0,4.4,59,0.00,,,0.00,WUHU216HW,2013-02-22 15:36:00,
2013-02-22 10:41:00,32.5,19.8,29.89,SSW,203,0.0,4.2,59,0.00,,,0.00,WUHU216HW,2013-02-22 15:41:00,
2013-02-22 10:46:00,32.5,19.8,29.89,ESE,113,2.9,4.4,59,0.00,,,0.00,WUHU216HW,2013-02-22 15:46:00,
2013-02-22 10:51:00,32.1,19.4,29.90,South,180,6.7,6.7,59,0.00,,,0.00,WUHU216HW,2013-02-22 15:51:00,
2013-02-22 10:56:00,32.1,19.9,29.90,SE,135,0.0,6.7,60,0.00,,,0.00,WUHU216HW,2013-02-22 15:56:00,
2013-02-22 11:01:00,31.8,19.5,29.90,SSE,158,0.0,8.0,60,0.00,,,0.00,WUHU216HW,2013-02-22 16:01:00,
2013-02-22 11:06:00,31.8,19.5,29.90,SSE,158,0.0,8.0,60,0.00,,,0.00,WUHU216HW,2013-02-22 16:06:00,
2013-02-22 11:11:00,31.6,19.7,29.91,SE,135,0.0,2.6,61,0.00,,,0.00,WUHU216HW,2013-02-22 16:11:00,
2013-02-22 11:16:00,31.8,19.9,29.91,SSE,158,0.0,4.2,61,0.00,,,0.00,WUHU216HW,2013-02-22 16:16:00,
2013-02-22 11:21:00,31.8,19.9,29.91,SSE,158,2.6,4.2,61,0.00,,,0.00,WUHU216HW,2013-02-22 16:21:00,
2013-02-22 11:26:00,31.8,19.9,29.91,ESE,113,0.0,2.6,61,0.00,,,0.00,WUHU216HW,2013-02-22 16:26:00,
2013-02-22 11:31:00,32.0,20.4,29.91,ESE,113,0.0,1.3,62,0.00,,,0.00,WUHU216HW,2013-02-22 16:31:00,
2013-02-22 11:36:00,32.1,20.6,29.91,ESE,113,0.0,1.1,62,0.00,,,0.00,WUHU216HW,2013-02-22 16:36:00,
2013-02-22 11:41:00,32.1,21.0,29.91,ENE,68,0.0,6.9,63,0.00,,,0.00,WUHU216HW,2013-02-22 16:41:00,
2013-02-22 11:46:00,32.1,21.0,29.91,SE,135,4.0,6.9,63,0.00,,,0.00,WUHU216HW,2013-02-22 16:46:00,
2013-02-22 11:51:00,32.1,20.8,29.91,SSW,203,0.0,6.2,63,0.00,,,0.00,WUHU216HW,2013-02-22 16:51:00,
2013-02-22 11:57:00,32.1,21.3,29.91,SE,135,0.0,6.2,64,0.00,,,0.00,WUHU216HW,2013-02-22 16:57:00,
2013-02-22 12:02:00,31.8,21.3,29.90,SE,135,0.0,4.4,65,0.00,,,0.00,WUHU216HW,2013-02-22 17:02:00,
2013-02-22 12:07:00,32.0,21.5,29.90,SSW,203,0.0,0.0,65,0.00,,,0.00,WUHU216HW,2013-02-22 17:07:00,
2013-02-22 12:12:00,32.1,21.7,29.90,South,180,0.0,0.0,65,0.00,,,0.00,WUHU216HW,2013-02-22 17:12:00,
2013-02-22 12:17:00,32.3,22.2,29.90,SSW,203,0.0,0.0,66,0.00,,,0.00,WUHU216HW,2013-02-22 17:17:00,
2013-02-22 12:22:00,32.3,22.6,29.90,SSE,158,0.0,0.0,67,0.00,,,0.00,WUHU216HW,2013-02-22 17:22:00,
2013-02-22 12:27:00,32.5,22.7,29.90,SSE,158,0.0,0.0,67,0.00,,,0.00,WUHU216HW,2013-02-22 17:27:00,
2013-02-22 12:32:00,32.5,23.1,29.89,ESE,113,0.0,0.0,68,0.00,,,0.00,WUHU216HW,2013-02-22 17:32:00,
2013-02-22 12:37:00,32.3,23.1,29.89,SE,135,0.0,0.8,68,0.00,,,0.00,WUHU216HW,2013-02-22 17:37:00,
2013-02-22 12:42:00,32.1,22.8,29.89,ESE,113,0.0,0.8,68,0.00,,,0.00,WUHU216HW,2013-02-22 17:42:00,
2013-02-22 12:47:00,32.1,22.8,29.88,ESE,113,2.0,2.0,69,0.00,,,0.00,WUHU216HW,2013-02-22 17:47:00,
2013-02-22 12:52:00,32.1,23.1,29.89,SE,135,0.0,2.0,69,0.00,,,0.00,WUHU216HW,2013-02-22 17:52:00,
2013-02-22 12:57:00,32.1,23.5,29.88,ESE,113,0.0,0.0,70,0.00,,,0.00,WUHU216HW,2013-02-22 17:57:00,
2013-02-22 13:02:00,32.1,23.5,29.88,SSE,158,0.0,6.9,70,0.00,,,0.00,WUHU216HW,2013-02-22 18:02:00,
2013-02-22 13:07:00,32.1,23.5,29.88,SE,135,0.0,6.9,70,0.00,,,0.00,WUHU216HW,2013-02-22 18:07:00,
2013-02-22 13:12:00,32.1,23.8,29.87,SSE,158,0.0,2.4,71,0.00,,,0.00,WUHU216HW,2013-02-22 18:12:00,
2013-02-22 13:17:00,32.1,24.1,29.88,SE,135,0.0,5.5,72,0.02,,,0.02,WUHU216HW,2013-02-22 18:17:00,
2013-02-22 13:22:00,32.1,24.1,29.87,ESE,113,0.0,5.5,72,0.02,,,0.02,WUHU216HW,2013-02-22 18:22:00,
2013-02-22 13:27:00,32.1,24.1,29.87,SE,135,0.0,4.0,72,0.02,,,0.02,WUHU216HW,2013-02-22 18:27:00,
2013-02-22 13:32:00,32.1,24.1,29.87,ESE,113,0.0,0.0,72,0.02,,,0.02,WUHU216HW,2013-02-22 18:32:00,
2013-02-22 13:37:00,31.8,23.8,29.87,ESE,113,0.0,3.3,72,0.02,,,0.02,WUHU216HW,2013-02-22 18:37:00,
2013-02-22 13:42:00,31.8,24.1,29.87,SSE,158,3.3,3.3,73,0.02,,,0.02,WUHU216HW,2013-02-22 18:42:00,
2013-02-22 13:47:00,31.8,24.1,29.87,ESE,113,0.0,3.3,73,0.02,,,0.02,WUHU216HW,2013-02-22 18:47:00,
2013-02-22 13:52:00,31.8,24.1,29.87,South,180,0.0,0.0,73,0.02,,,0.02,WUHU216HW,2013-02-22 18:52:00,
2013-02-22 13:57:00,31.8,24.1,29.86,South,180,0.0,5.1,73,0.02,,,0.02,WUHU216HW,2013-02-22 18:57:00,
2013-02-22 14:02:00,31.8,24.4,29.86,East,90,0.0,8.0,74,0.02,,,0.02,WUHU216HW,2013-02-22 19:02:00,
2013-02-22 14:07:00,31.8,24.4,29.86,SSE,158,0.0,8.2,74,0.02,,,0.02,WUHU216HW,2013-02-22 19:07:00,
2013-02-22 14:12:00,31.8,24.4,29.86,SE,135,4.4,8.2,74,0.00,,,0.02,WUHU216HW,2013-02-22 19:12:00,
2013-02-22 14:17:00,31.8,24.8,29.86,SE,135,0.0,5.1,75,0.00,,,0.02,WUHU216HW,2013-02-22 19:17:00,
2013-02-22 14:22:00,31.6,24.6,29.85,East,90,5.5,10.2,75,0.00,,,0.02,WUHU216HW,2013-02-22 19:22:00,
2013-02-22 14:27:00,31.6,24.6,29.85,East,90,5.1,10.7,75,0.00,,,0.02,WUHU216HW,2013-02-22 19:27:00,
2013-02-22 14:31:00,31.2,24.2,29.86,ESE,113,6.2,10.7,75,0.00,,,0.02,WUHU216HW,2013-02-22 19:31:00,
2013-02-22 14:36:00,31.2,24.4,29.86,East,90,5.5,9.6,75,0.00,,,0.02,WUHU216HW,2013-02-22 19:36:00,
2013-02-22 14:42:00,31.2,24.5,29.86,North,0,0.0,9.6,76,0.00,,,0.02,WUHU216HW,2013-02-22 19:42:00,
2013-02-22 14:48:00,31.2,24.5,29.86,SE,135,0.0,11.1,76,0.00,,,0.02,WUHU216HW,2013-02-22 19:48:00,
2013-02-22 14:53:00,31.2,24.5,29.86,SSE,158,3.1,11.1,76,0.00,,,0.02,WUHU216HW,2013-02-22 19:53:00,
2013-02-22 14:58:00,31.2,24.5,29.86,NE,45,4.9,7.8,76,0.00,,,0.02,WUHU216HW,2013-02-22 19:58:00,
2013-02-22 15:03:00,31.2,24.5,29.85,SE,135,0.0,7.8,76,0.00,,,0.02,WUHU216HW,2013-02-22 20:03:00,
2013-02-22 15:09:00,31.2,24.5,29.85,SE,135,0.0,3.8,76,0.00,,,0.02,WUHU216HW,2013-02-22 20:09:00,
2013-02-22 15:16:00,31.4,24.7,29.85,ESE,113,0.0,6.4,76,0.00,,,0.02,WUHU216HW,2013-02-22 20:16:00,
2013-02-22 15:21:00,31.6,25.2,29.85,SE,135,4.6,6.4,77,0.00,,,0.02,WUHU216HW,2013-02-22 20:21:00,
2013-02-22 15:26:00,31.4,25.0,29.86,SE,135,0.0,6.4,77,0.00,,,0.02,WUHU216HW,2013-02-22 20:26:00,
2013-02-22 15:31:00,31.6,25.2,29.85,ESE,113,0.0,7.1,77,0.00,,,0.02,WUHU216HW,2013-02-22 20:31:00,
2013-02-22 15:36:00,31.6,25.2,29.85,East,90,7.8,7.8,77,0.00,,,0.02,WUHU216HW,2013-02-22 20:36:00,
2013-02-22 15:41:00,31.6,25.2,29.85,ESE,113,0.0,7.8,77,0.00,,,0.02,WUHU216HW,2013-02-22 20:41:00,
2013-02-22 15:46:00,31.6,25.2,29.85,SSE,158,5.3,6.2,77,0.00,,,0.02,WUHU216HW,2013-02-22 20:46:00,
2013-02-22 15:51:00,31.6,25.2,29.85,ESE,113,1.5,6.0,77,0.00,,,0.02,WUHU216HW,2013-02-22 20:51:00,
2013-02-22 15:56:00,31.6,25.2,29.85,South,180,0.0,6.0,77,0.00,,,0.02,WUHU216HW,2013-02-22 20:56:00,
2013-02-22 16:01:00,31.6,25.2,29.85,SE,135,3.5,4.4,77,0.00,,,0.02,WUHU216HW,2013-02-22 21:01:00,
2013-02-22 16:06:00,31.6,25.2,29.85,ESE,113,0.0,4.6,77,0.00,,,0.02,WUHU216HW,2013-02-22 21:06:00,
2013-02-22 16:11:00,31.6,25.2,29.85,SSE,158,0.0,4.6,77,0.00,,,0.02,WUHU216HW,2013-02-22 21:11:00,
2013-02-22 16:16:00,31.6,25.2,29.84,ESE,113,7.8,8.5,77,0.00,,,0.02,WUHU216HW,2013-02-22 21:16:00,
2013-02-22 16:21:00,31.6,25.2,29.84,SSE,158,5.1,8.5,77,0.00,,,0.02,WUHU216HW,2013-02-22 21:21:00,
2013-02-22 16:26:00,31.6,25.5,29.84,East,90,5.3,6.0,78,0.00,,,0.02,WUHU216HW,2013-02-22 21:26:00,
2013-02-22 16:31:00,31.6,25.5,29.84,ESE,113,1.7,9.8,78,0.00,,,0.02,WUHU216HW,2013-02-22 21:31:00,
2013-02-22 16:36:00,31.6,25.5,29.83,ESE,113,3.1,9.8,78,0.00,,,0.02,WUHU216HW,2013-02-22 21:36:00,
2013-02-22 16:41:00,31.6,25.5,29.83,East,90,0.0,5.3,78,0.00,,,0.02,WUHU216HW,2013-02-22 21:41:00,
2013-02-22 16:46:00,31.6,25.5,29.83,SSE,158,7.3,8.5,78,0.00,,,0.02,WUHU216HW,2013-02-22 21:46:00,
2013-02-22 16:51:00,31.6,25.9,29.83,ESE,113,4.2,8.5,79,0.00,,,0.02,WUHU216HW,2013-02-22 21:51:00,
2013-02-22 16:56:00,31.6,25.9,29.83,SSE,158,0.0,4.9,79,0.00,,,0.02,WUHU216HW,2013-02-22 21:56:00,
2013-02-22 17:01:00,31.6,25.5,29.83,SE,135,3.3,6.9,78,0.00,,,0.02,WUHU216HW,2013-02-22 22:01:00,
2013-02-22 17:06:00,31.6,25.5,29.84,ESE,113,0.0,7.8,78,0.00,,,0.02,WUHU216HW,2013-02-22 22:06:00,
2013-02-22 17:11:00,31.4,25.4,29.84,SSE,158,3.1,8.2,78,0.00,,,0.02,WUHU216HW,2013-02-22 22:11:00,
2013-02-22 17:16:00,31.2,25.5,29.83,ESE,113,0.0,8.2,79,0.00,,,0.02,WUHU216HW,2013-02-22 22:16:00,
2013-02-22 17:21:00,31.2,25.5,29.83,East,90,6.9,7.3,79,0.00,,,0.02,WUHU216HW,2013-02-22 22:21:00,
2013-02-22 17:26:00,31.2,25.5,29.84,ESE,113,4.9,13.4,79,0.00,,,0.02,WUHU216HW,2013-02-22 22:26:00,
2013-02-22 17:31:00,31.2,25.5,29.84,SE,135,4.2,13.4,79,0.00,,,0.02,WUHU216HW,2013-02-22 22:31:00,
2013-02-22 17:36:00,31.2,25.5,29.83,SE,135,0.0,6.0,79,0.00,,,0.02,WUHU216HW,2013-02-22 22:36:00,
2013-02-22 17:41:00,31.2,25.5,29.84,ESE,113,4.9,4.9,79,0.00,,,0.02,WUHU216HW,2013-02-22 22:41:00,
2013-02-22 17:46:00,31.2,25.5,29.84,SE,135,5.8,12.3,79,0.00,,,0.02,WUHU216HW,2013-02-22 22:46:00,
2013-02-22 17:51:00,31.2,25.5,29.83,SE,135,2.6,12.3,79,0.00,,,0.02,WUHU216HW,2013-02-22 22:51:00,
2013-02-22 17:56:00,31.2,25.8,29.83,East,90,5.5,6.7,80,0.00,,,0.02,WUHU216HW,2013-02-22 22:56:00,
2013-02-22 18:02:00,31.2,25.8,29.83,SE,135,2.6,10.0,80,0.00,,,0.02,WUHU216HW,2013-02-22 23:02:00,
2013-02-22 18:07:00,31.2,25.8,29.83,East,90,0.0,10.0,80,0.00,,,0.02,WUHU216HW,2013-02-22 23:07:00,
2013-02-22 18:12:00,31.2,25.8,29.83,ESE,113,6.9,7.8,80,0.00,,,0.02,WUHU216HW,2013-02-22 23:12:00,
2013-02-22 18:17:00,31.2,25.8,29.84,ESE,113,3.3,7.8,80,0.00,,,0.02,WUHU216HW,2013-02-22 23:17:00,
2013-02-22 18:22:00,31.2,25.8,29.83,ESE,113,11.6,11.6,80,0.00,,,0.02,WUHU216HW,2013-02-22 23:22:00,
2013-02-22 18:27:00,31.2,25.8,29.84,ESE,113,5.8,11.6,80,0.00,,,0.02,WUHU216HW,2013-02-22 23:27:00,
2013-02-22 18:32:00,31.2,25.8,29.83,ESE,113,4.2,6.7,80,0.00,,,0.02,WUHU216HW,2013-02-22 23:32:00,
2013-02-22 18:37:00,31.2,25.8,29.84,SE,135,3.1,8.0,80,0.00,,,0.02,WUHU216HW,2013-02-22 23:37:00,
2013-02-22 18:42:00,31.2,25.8,29.83,SE,135,9.1,9.1,80,0.00,,,0.02,WUHU216HW,2013-02-22 23:42:00,
2013-02-22 18:47:00,31.2,25.8,29.83,SE,135,3.5,9.1,80,0.00,,,0.02,WUHU216HW,2013-02-22 23:47:00,
2013-02-22 18:52:00,31.2,25.5,29.82,SE,135,0.0,5.5,79,0.00,,,0.02,WUHU216HW,2013-02-22 23:52:00,
2013-02-22 18:57:00,31.2,25.5,29.82,SSW,203,0.0,5.5,79,0.00,,,0.02,WUHU216HW,2013-02-22 23:57:00,
2013-02-22 19:02:00,31.2,25.5,29.82,South,180,0.0,7.3,79,0.00,,,0.02,WUHU216HW,2013-02-23 00:02:00,
2013-02-22 19:07:00,31.2,25.5,29.82,East,90,9.6,9.6,79,0.00,,,0.02,WUHU216HW,2013-02-23 00:07:00,
2013-02-22 19:12:00,31.2,25.5,29.82,SW,225,0.0,9.6,79,0.00,,,0.02,WUHU216HW,2013-02-23 00:12:00,
2013-02-22 19:17:00,31.4,25.7,29.82,East,90,0.0,4.9,79,0.00,,,0.02,WUHU216HW,2013-02-23 00:17:00,
2013-02-22 19:22:00,31.4,25.7,29.82,SE,135,0.0,5.1,79,0.00,,,0.02,WUHU216HW,2013-02-23 00:22:00,
2013-02-22 19:27:00,31.6,25.9,29.82,ESE,113,0.0,8.0,79,0.00,,,0.02,WUHU216HW,2013-02-23 00:27:00,
2013-02-22 19:32:00,31.6,25.9,29.82,East,90,2.9,8.0,79,0.00,,,0.02,WUHU216HW,2013-02-23 00:32:00,
2013-02-22 19:37:00,31.6,25.9,29.82,SSW,203,0.0,6.7,79,0.00,,,0.02,WUHU216HW,2013-02-23 00:37:00,
2013-02-22 19:42:00,31.6,25.9,29.83,ESE,113,0.0,6.7,79,0.00,,,0.02,WUHU216HW,2013-02-23 00:42:00,
2013-02-22 19:47:00,31.6,25.9,29.82,SE,135,0.0,3.3,79,0.00,,,0.02,WUHU216HW,2013-02-23 00:47:00,
2013-02-22 19:52:00,31.6,25.9,29.82,SSW,203,4.9,8.0,79,0.00,,,0.02,WUHU216HW,2013-02-23 00:52:00,
2013-02-22 19:57:00,31.6,26.1,29.82,ENE,68,0.0,8.0,80,0.00,,,0.02,WUHU216HW,2013-02-23 00:57:00,
2013-02-22 20:02:00,31.6,26.2,29.82,SE,135,0.0,5.5,80,0.00,,,0.02,WUHU216HW,2013-02-23 01:02:00,
2013-02-22 20:07:00,31.6,26.2,29.82,East,90,5.1,5.5,80,0.00,,,0.02,WUHU216HW,2013-02-23 01:07:00,
2013-02-22 20:13:00,31.6,26.2,29.82,SE,135,0.0,8.0,80,0.00,,,0.02,WUHU216HW,2013-02-23 01:13:00,
2013-02-22 20:17:00,31.6,26.2,29.82,SE,135,3.8,9.8,80,0.00,,,0.02,WUHU216HW,2013-02-23 01:17:00,
2013-02-22 20:23:00,31.6,26.2,29.82,East,90,0.0,9.8,80,0.00,,,0.02,WUHU216HW,2013-02-23 01:23:00,
2013-02-22 20:28:00,31.6,26.2,29.81,ESE,113,0.0,8.5,80,0.00,,,0.02,WUHU216HW,2013-02-23 01:28:00,
2013-02-22 20:33:00,31.6,26.2,29.81,ESE,113,3.5,8.5,80,0.00,,,0.02,WUHU216HW,2013-02-23 01:33:00,
2013-02-22 20:38:00,31.6,26.2,29.82,SE,135,4.6,10.2,80,0.00,,,0.02,WUHU216HW,2013-02-23 01:38:00,
2013-02-22 20:43:00,31.6,26.5,29.81,ESE,113,2.9,10.2,81,0.00,,,0.02,WUHU216HW,2013-02-23 01:43:00,
2013-02-22 20:48:00,31.6,26.5,29.82,ENE,68,9.3,14.0,81,0.00,,,0.02,WUHU216HW,2013-02-23 01:48:00,
2013-02-22 20:53:00,31.6,26.5,29.82,ENE,68,0.0,14.0,81,0.00,,,0.02,WUHU216HW,2013-02-23 01:53:00,
2013-02-22 20:58:00,31.6,26.5,29.82,ESE,113,5.3,12.0,81,0.00,,,0.02,WUHU216HW,2013-02-23 01:58:00,
2013-02-22 21:03:00,31.6,26.5,29.82,ESE,113,10.5,14.5,81,0.00,,,0.02,WUHU216HW,2013-02-23 02:03:00,
2013-02-22 21:08:00,31.6,26.5,29.81,ENE,68,7.6,14.5,81,0.00,,,0.02,WUHU216HW,2013-02-23 02:08:00,
2013-02-22 21:13:00,31.6,26.5,29.80,East,90,4.6,9.8,81,0.00,,,0.02,WUHU216HW,2013-02-23 02:13:00,
2013-02-22 21:18:00,31.6,26.5,29.81,ENE,68,4.6,8.5,81,0.00,,,0.02,WUHU216HW,2013-02-23 02:18:00,
2013-02-22 21:23:00,31.6,26.5,29.82,ESE,113,1.7,9.3,81,0.00,,,0.02,WUHU216HW,2013-02-23 02:23:00,
2013-02-22 21:28:00,31.6,26.5,29.81,ESE,113,7.6,13.6,81,0.00,,,0.02,WUHU216HW,2013-02-23 02:28:00,
2013-02-22 21:34:00,31.6,26.5,29.82,ENE,68,4.9,13.6,81,0.00,,,0.02,WUHU216HW,2013-02-23 02:34:00,
2013-02-22 21:39:00,31.6,26.5,29.81,SSE,158,6.0,10.9,81,0.00,,,0.02,WUHU216HW,2013-02-23 02:39:00,
2013-02-22 21:44:00,31.6,26.5,29.80,ESE,113,6.9,10.9,81,0.00,,,0.02,WUHU216HW,2013-02-23 02:44:00,
2013-02-22 21:49:00,31.6,26.5,29.80,ESE,113,4.6,10.9,81,0.00,,,0.02,WUHU216HW,2013-02-23 02:49:00,
2013-02-22 21:54:00,31.6,26.5,29.80,ESE,113,3.3,6.7,81,0.00,,,0.02,WUHU216HW,2013-02-23 02:54:00,
2013-02-22 21:59:00,31.6,26.5,29.80,East,90,0.0,10.7,81,0.00,,,0.02,WUHU216HW,2013-02-23 02:59:00,
2013-02-22 22:04:00,31.6,26.5,29.80,SE,135,8.2,10.7,81,0.00,,,0.02,WUHU216HW,2013-02-23 03:04:00,
2013-02-22 22:09:00,31.8,26.7,29.79,ESE,113,0.0,8.2,81,0.00,,,0.02,WUHU216HW,2013-02-23 03:09:00,
2013-02-22 22:14:00,31.8,26.7,29.80,ESE,113,6.2,6.4,81,0.00,,,0.02,WUHU216HW,2013-02-23 03:14:00,
2013-02-22 22:19:00,31.8,26.7,29.80,ESE,113,4.6,6.9,81,0.00,,,0.02,WUHU216HW,2013-02-23 03:19:00,
2013-02-22 22:24:00,31.8,26.7,29.80,ESE,113,10.2,10.2,81,0.00,,,0.02,WUHU216HW,2013-02-23 03:24:00,
2013-02-22 22:29:00,31.8,26.7,29.80,ENE,68,4.9,10.2,81,0.00,,,0.02,WUHU216HW,2013-02-23 03:29:00,
2013-02-22 22:34:00,31.8,26.9,29.80,NE,45,9.6,13.4,82,0.00,,,0.02,WUHU216HW,2013-02-23 03:34:00,
2013-02-22 22:39:00,31.8,26.9,29.80,SE,135,6.7,13.4,82,0.00,,,0.02,WUHU216HW,2013-02-23 03:39:00,
2013-02-22 22:44:00,31.8,26.9,29.80,ESE,113,4.4,10.7,82,0.00,,,0.02,WUHU216HW,2013-02-23 03:44:00,
2013-02-22 22:49:00,31.8,26.9,29.80,ENE,68,3.5,10.7,82,0.00,,,0.02,WUHU216HW,2013-02-23 03:49:00,
2013-02-22 22:54:00,31.8,26.9,29.80,ENE,68,0.0,8.0,82,0.00,,,0.02,WUHU216HW,2013-02-23 03:54:00,
2013-02-22 22:59:00,31.8,26.9,29.80,SE,135,0.0,8.0,82,0.00,,,0.02,WUHU216HW,2013-02-23 03:59:00,
2013-02-22 23:04:00,31.8,26.9,29.81,ESE,113,4.4,8.2,82,0.00,,,0.02,WUHU216HW,2013-02-23 04:04:00,
2013-02-22 23:09:00,31.8,26.9,29.82,SE,135,3.1,8.2,82,0.00,,,0.02,WUHU216HW,2013-02-23 04:09:00,
2013-02-22 23:15:00,31.8,26.9,29.80,SSE,158,0.0,6.7,82,0.00,,,0.02,WUHU216HW,2013-02-23 04:15:00,
2013-02-22 23:20:00,31.8,26.9,29.80,SE,135,0.0,6.7,82,0.00,,,0.02,WUHU216HW,2013-02-23 04:20:00,
2013-02-22 23:25:00,31.8,26.9,29.80,ESE,113,12.7,12.7,82,0.00,,,0.02,WUHU216HW,2013-02-23 04:25:00,
2013-02-22 23:30:00,31.8,26.9,29.80,SE,135,4.6,12.7,82,0.00,,,0.02,WUHU216HW,2013-02-23 04:30:00,
2013-02-22 23:35:00,31.8,27.2,29.79,SSE,158,5.3,10.0,83,0.00,,,0.02,WUHU216HW,2013-02-23 04:35:00,
2013-02-22 23:40:00,31.8,26.9,29.79,SE,135,0.0,10.5,82,0.00,,,0.02,WUHU216HW,2013-02-23 04:40:00,
2013-02-22 23:45:00,31.8,26.9,29.79,ENE,68,4.2,10.5,82,0.00,,,0.02,WUHU216HW,2013-02-23 04:45:00,
2013-02-22 23:50:00,32.1,27.3,29.79,ESE,113,0.0,17.2,82,0.00,,,0.02,WUHU216HW,2013-02-23 04:50:00,
2013-02-22 23:55:00,32.1,27.3,29.79,SE,135,0.0,17.2,82,0.00,,,0.02,WUHU216HW,2013-02-23 04:55:00,